sat.trackr.live / text

‹ back to catalog

STARLINK-30518

NORAD 58029 · 2023-156B

PAYLOAD ACTIVE UNKNOWN

§ Identity

Operator
Country
US
Launch date
2023-10-09
Launch site
AFWTR
Launch vehicle
Mass (kg)
RCS (m²)

Purposes: comms

External: N2YO · Heavens-Above · Gunter

§ Orbital elements

Epoch: 2026-09-20T23:33:46.667232Z

Period
93.85 min
Inclination
53.1596°
Eccentricity
0.0001071
Mean motion
15.34394961 rev/d
Perigee alt
462.0 km
Apogee alt
463.5 km
Semi-major
6,840.9 km
B*
7.5733e-5
RAAN
249.3189°
Arg perigee
89.2678°
Mean anomaly
270.8447°
Rev number
16,624

§ Raw data

STARLINK-305181 58029U 23156B   26263.98179013  .00002183  00000+0  75733-4 0  99902 58029  53.1596 249.3189 0001071  89.2678 270.8447 15.34394961166246

JSON: /api/v1/satellites/58029 · /tle

For live sub-satellite position, see the globe view (requires WebGL).

§ Visibility from observer

Set your observer location to see the next 7 days of passes ≥ 10°. The values pass through the URL so the page stays shareable.

No JS? Fill the form by hand. The geolocation button needs JavaScript.